Regional Weather Roundup
Issued by NWS

Home | Current Version | Previous Version | Graphics & Text | Print | Product List | Glossary On
Versions: 1 2 3 4 5 6 7 8 9 10 11 12 13 14 15 16 17 18 19 20 21 22 23 24 25 26 27 28 29 30 31 32 33 34 35 36 37 38 39 40 41 42 43 44 45 46 47 48 49 50
000
ASUS43 KOAX 241810
RWRNE

WEATHER ROUNDUP FOR NEBRASKA
NATIONAL WEATHER SERVICE OMAHA NE
100 PM CDT FRI APR 24 2015

NOTES: SATELLITE DATA IS BEING USED TO AUGMENT CLOUD COVER ABOVE
       12000 FEET.
       "FAIR" INDICATES FEW OR NO CLOUDS BELOW 12,000 FEET WITH NO
       SIGNIFICANT WEATHER AND/OR OBSTRUCTIONS TO VISIBILITY.

  * THESE STATIONS DO NOT REPORT WEATHER SUCH AS RAIN...SNOW OR FOG.

NEZ001>004-019>022-054>056-241900-
NEBRASKA PANHANDLE

CITY           SKY/WX    TMP DP  RH WIND       PRES   REMARKS
SCOTTSBLUFF    SUNNY     68  37  32 W7        29.63F
6HR MIN TEMP:  39; 6HR MAX TEMP:  68;

ALLIANCE       MOSUNNY   64  40  41 W7        29.61F
6HR MIN TEMP:  38; 6HR MAX TEMP:  66;

CHADRON        MOSUNNY   66  45  46 W6        29.60F
6HR MIN TEMP:  39; 6HR MAX TEMP:  67;

KIMBALL        MOSUNNY   65  32  29 NW13G20   29.64F
SIDNEY         MOSUNNY   67  38  34 NW15G23   29.65F
6HR MIN TEMP:  46; 6HR MAX TEMP:  68;

$$

NEZ057>060-069>072-079>082-241900-
SOUTHWEST NEBRASKA

CITY           SKY/WX    TMP DP  RH WIND       PRES   REMARKS
IMPERIAL       PTSUNNY   64  52  64 N7        29.63F
6HR MIN TEMP:  50; 6HR MAX TEMP:  64;

LEXINGTON      CLOUDY    64  55  71 S7        29.63F
MCCOOK         CLOUDY    66  53  63 E6        29.62F
6HR MIN TEMP:  52; 6HR MAX TEMP:  66;

OGALLALA       SUNNY     65  51  60 E3        29.61F
$$

NEZ005>010-023>029-035>040-094-241900-
NORTH CENTRAL NEBRASKA

CITY           SKY/WX    TMP DP  RH WIND       PRES   REMARKS
VALENTINE      MOSUNNY   72  40  31 VRB6      29.56F
6HR MIN TEMP:  48; 6HR MAX TEMP:  72;

AINSWORTH      SUNNY     73  41  32 W9        29.57F
BROKEN BOW     MOSUNNY   65  54  67 S12       29.62F
6HR MIN TEMP:  50; 6HR MAX TEMP:  66;

O`NEILL        SUNNY     74  53  46 S15       29.58F
ORD            MOSUNNY   67  54  63 SW12G20   29.61F
6HR MIN TEMP:  49; 6HR MAX TEMP:  68;

THEDFORD       SUNNY     72  45  38 SW7       29.60F
$$

NEZ041-046>049-061>064-073>077-083>087-241900-
SOUTH CENTRAL NEBRASKA

CITY           SKY/WX    TMP DP  RH WIND       PRES   REMARKS
GRAND ISLAND   CLOUDY    61  55  81 S9        29.65F
6HR MIN TEMP:  51; 6HR MAX TEMP:  61;

AURORA         CLOUDY    60  56  86 S9        29.65F
HASTINGS       CLOUDY    60  55  83 S6        29.64F
6HR MIN TEMP:  52; 6HR MAX TEMP:  60;

HEBRON         CLOUDY    60  54  78 S7        29.67F
HOLDREGE       CLOUDY    59  55  89 S3        29.64F
KEARNEY *      CLOUDY    61  55  82 S10       29.65F
YORK           CLOUDY    61  55  82 S12       29.66F
$$

NEZ011>018-030>034-042>045-241900-
NORTHEAST NEBRASKA

CITY           SKY/WX    TMP DP  RH WIND       PRES   REMARKS
NORFOLK        SUNNY     68  54  60 S17       29.63F
6HR MIN TEMP:  51; 6HR MAX TEMP:  69; 6HR PCP:  0.01;

ALBION         CLOUDY    63  53  70 SW12G22   29.64F
BLAIR          CLOUDY    63  50  62 S13G20    29.68F
COLUMBUS *     CLOUDY    63  52  67 S13G18    29.67F
FREMONT        CLOUDY    64  53  68 S12       29.68F
TEKAMAH        LGT RAIN  67  53  61 S14G22    29.67F
6HR MIN TEMP:  55; 6HR MAX TEMP:  68; 6HR PCP: TRACE;

WAYNE          SUNNY     71  51  48 S15G23    29.63F
$$

NEZ050>053-065>068-078-088>093-241900-
SOUTHEAST NEBRASKA

CITY           SKY/WX    TMP DP  RH WIND       PRES   REMARKS
LINCOLN        CLOUDY    64  54  69 S10       29.67F
6HR MIN TEMP:  55; 6HR MAX TEMP:  65;

OMAHA EPPLEY   PTSUNNY   63  51  65 S15       29.69F
6HR MIN TEMP:  56; 6HR MAX TEMP:  64; 6HR PCP: TRACE;

BEATRICE       CLOUDY    61  53  75 S9        29.68F
FALLS CITY     CLOUDY    59  49  69 S16       29.72F
6HR MIN TEMP:  56; 6HR MAX TEMP:  59;

NEBRASKA CITY  CLOUDY    64  47  54 S15       29.70F
PLATTSMOUTH    PTSUNNY   64  49  58 S12       29.69F
$$

NEZ044-045-051>053-067-241900-
OMAHA AREA

CITY           SKY/WX    TMP DP  RH WIND       PRES   REMARKS
OMAHA EPPLEY   PTSUNNY   63  51  65 S15       29.69F
6HR MIN TEMP:  56; 6HR MAX TEMP:  64; 6HR PCP: TRACE;

BLAIR          CLOUDY    63  50  62 S13G20    29.68F
FREMONT        CLOUDY    64  53  68 S12       29.68F
MILLARD        CLOUDY    63  53  69 S9        29.69F
OFFUTT AFB     CLOUDY    64  53  66 S13       29.68F
PLATTSMOUTH    PTSUNNY   64  49  58 S12       29.69F
WAHOO          CLOUDY    64  52  64 S13       29.67F
$$



USA.gov is the U.S. government's official web portal to all federal, state and local government web resources and services.